Skip Page Navigation
NASA JPL Caltech
NASA Logo - Jet Propulsion Laboratory + View the NASA Portal
+ Center for Near-Earth Object Studies
JPL Home Earth Solar System Stars & Galaxies Technology
JPL Solar System Dynamics
BODIES ORBITS EPHEMERIDES TOOLS PHYSICAL DATA DISCOVERY FAQ SITE MAP
IMPORTANT: The SSD Announcement email list is now available. Major changes are coming in the near future, including possible hostname and/or URL changes. To be notified of such changes, subscribe to this email list.

Please visit this page for more details.


JPL Small-Body Database Browser
Search: [ help ]  
48228 (2001 KB59)
Classification: Main-belt Asteroid          SPK-ID: 2048228
Ephemeris | Orbit Diagram | Orbital Elements | Mission Design | Physical Parameters | Discovery Circumstances ]

[ show orbit diagram ]
Orbital Elements at Epoch 2458600.5 (2019-Apr-27.0) TDB
Reference: JPL 24 (heliocentric ecliptic J2000)
 Element Value Uncertainty (1-sigma)   Units 
e .159854065904153 3.8757e-08  
a 2.76577526487542 1.75e-08 au
q 2.323654843407948 1.1169e-07 au
i 8.400911252027832 5.5517e-06 deg
node 199.06788911 2.8933e-05 deg
peri 117.6375789263841 3.4738e-05 deg
M 278.5517217070823 2.1942e-05 deg
tp 2458980.604636264618
(2020-May-11.10463626)
0.00010447 TDB
period 1680.056005151447
4.60
1.5946e-05
4.366e-08
d
yr
n .2142785710096302 2.0337e-09 deg/d
Q 3.207895686342892 2.0298e-08 au
  Orbit Determination Parameters
   # obs. used (total)      1000  
   data-arc span      11245 days (30.79 yr)  
   first obs. used      1988-11-03  
   last obs. used      2019-08-18  
   planetary ephem.      DE431  
   SB-pert. ephem.      SB431-N16  
   condition code      0  
   norm. resid. RMS      .57652  
   source      ORB  
   producer      Otto Matic  
   solution date      2019-Sep-24 02:14:48  

Additional Information
 Earth MOID = 1.32446 au 
 Jupiter MOID = 2.16306 au 
 T_jup = 3.305 
[ show covariance matrix ]

Ephemeris | Orbit Diagram | Orbital Elements | Mission Design | Physical Parameters | Discovery Circumstances ]

Physical Parameter Table
Parameter Symbol Value Units Sigma Reference Notes
absolute magnitude H 14.2   n/a MPO436120  
diameter diameter 3.439 km 0.358 urn:nasa:pds:neowise_diameters_albedos::2.0[mainbelt] (http://adsabs.harvard.edu/abs/2011ApJ...741...68M)  
geometric albedo albedo 0.342   0.076 urn:nasa:pds:neowise_diameters_albedos::2.0[mainbelt] (http://adsabs.harvard.edu/abs/2011ApJ...741...68M)  

48228 (2001 KB59)          Discovered 2001-May-26 by LINEAR at Socorro
Reference: 20020921/Numbers.arcLast Updated: 2004-04-19

Alternate Designations
 2001 KB59 = 1988 VA7 = 2000 DU115 
Ephemeris | Orbit Diagram | Orbital Elements | Mission Design | Physical Parameters | Discovery Circumstances ]
ABOUT SSD CREDITS/AWARDS PRIVACY/COPYRIGHT GLOSSARY LINKS
FirstGov
(server date/time)  
NASA Home Page
Site Manager:   Ryan S. Park
Webmaster  Alan B. Chamberlin